time_stamp(utc),avg(mph),gust(mph),direction(deg),12m_air_temp(f),sonic_u(cm/s),sonic_v(cm/s),sonic_w(cm/s),pressure,2m_air_temp(f),pyranometer(W/m^2)
"2019-10-30 00:03:15+00",7.0,8.0,,60.8,4326,221,-2009,1023.43,60.7,0
"2019-10-30 00:08:15+00",4.5,5.5,,60.8,2772,181,-1269,1023.39,60.7,0
"2019-10-30 00:13:15+00",6.0,7.0,,60.8,3584,240,-1681,1023.43,60.7,0
"2019-10-30 00:18:15+00",5.0,6.0,,60.8,2833,186,-1309,1023.51,60.7,0
"2019-10-30 00:23:15+00",6.0,7.0,,60.8,4371,221,-2028,1023.54,60.8,0
"2019-10-30 00:28:15+00",5.6,6.6,,60.8,3589,202,-1658,1023.59,60.7,0
"2019-10-30 00:33:15+00",6.3,7.3,,60.8,3087,219,-1425,1023.6,60.7,0
"2019-10-30 00:38:15+00",7.1,8.1,,60.8,4417,559,-2305,1023.46,60.7,0
"2019-10-30 00:43:15+00",8.1,9.1,,60.8,16520,0,88,1023.54,60.7,-0.1
"2019-10-30 00:48:15+00",5.6,6.6,,60.8,3099,208,-1422,1023.59,60.7,0
"2019-10-30 00:53:15+00",6.8,7.8,,60.8,16526,0,72,1023.6,60.7,-0.1
"2019-10-30 00:58:15+00",5.2,6.2,,60.8,2649,212,-1226,1023.71,60.7,0
"2019-10-30 01:03:15+00",5.8,6.8,,60.8,1591,235,-729,1023.69,60.7,0
"2019-10-30 01:08:15+00",4.7,5.7,,60.8,1763,186,-800,1023.75,60.7,0
"2019-10-30 01:13:15+00",4.0,6.0,,60.8,1455,180,-671,1023.79,60.7,0
"2019-10-30 01:18:15+00",5.8,6.8,,60.8,2242,241,-1058,1023.74,60.7,0
"2019-10-30 01:23:15+00",5.5,6.5,,60.8,1927,274,-855,1023.73,60.7,0
"2019-10-30 01:28:15+00",5.2,6.2,,60.8,4535,1898,-864,1023.79,60.7,0
"2019-10-30 01:33:15+00",4.3,5.3,,60.8,4197,2357,-231,1023.8,60.7,0
"2019-10-30 01:38:15+00",4.6,6.6,,60.8,4511,2199,-755,1023.79,60.8,0
"2019-10-30 02:23:15+00",8.4,8.4,,60.8,16537,0,87,1023.79,60.8,-0.1
"2019-10-30 02:28:15+00",6.1,7.1,,60.9,2470,363,-968,1023.78,60.8,0
"2019-10-30 02:33:15+00",6.5,7.5,,60.9,3408,1062,-951,1023.82,60.8,0
"2019-10-30 02:38:15+00",5.4,6.4,,60.9,3499,426,-1432,1023.83,60.8,0
"2019-10-30 02:53:15+00",5.6,6.6,,60.9,3609,175,-1631,1023.69,60.8,0
"2019-10-30 02:58:15+00",7.1,8.1,,60.8,4350,214,-1969,1023.57,60.8,0
"2019-10-30 03:03:15+00",6.2,6.2,,60.8,2929,160,-1263,1023.5,60.8,0
"2019-10-30 03:08:15+00",6.6,7.6,,60.8,2257,161,-933,1023.43,60.8,0
"2019-10-30 03:13:15+00",7.8,8.8,,60.8,2675,195,-1118,1023.35,60.8,0
"2019-10-30 03:18:15+00",6.2,7.2,,60.8,3133,160,-1382,1023.39,60.7,0
"2019-10-30 03:23:15+00",5.8,6.8,,60.8,2468,157,-1079,1023.29,60.8,0
"2019-10-30 03:28:15+00",6.0,7.0,,60.8,2387,164,-1024,1023.3,60.8,0
"2019-10-30 03:33:15+00",7.0,7.0,,60.8,3763,188,-1671,1023.28,60.8,0
"2019-10-30 03:38:15+00",5.2,6.2,,60.9,1140,123,-425,1023.25,60.8,0
"2019-10-30 03:43:15+00",5.8,6.8,,60.8,1843,153,-752,1023.17,60.8,0
"2019-10-30 03:48:15+00",6.1,7.1,,60.8,2197,195,-953,1023.18,60.7,0
"2019-10-30 03:53:15+00",4.8,5.8,,60.7,1608,100,-648,1023.17,60.7,0
"2019-10-30 03:58:15+00",6.7,7.7,,60.7,2319,152,-956,1023.14,60.7,0
"2019-10-30 04:13:15+00",6.2,7.2,,60.7,4193,228,-1944,1023.24,60.6,0
"2019-10-30 04:18:15+00",5.9,6.9,,60.8,3954,205,-1817,1023.19,60.7,0
"2019-10-30 04:23:15+00",6.1,7.1,,60.8,4316,231,-2010,1023.25,60.7,0
"2019-10-30 04:28:15+00",6.5,7.5,,60.8,4898,230,-2262,1023.3,60.8,0
"2019-10-30 04:33:15+00",5.1,6.1,,60.8,3035,176,-1376,1023.27,60.8,0
"2019-10-30 04:38:15+00",4.3,6.3,,60.9,1678,167,-754,1023.32,60.8,0
"2019-10-30 04:43:15+00",5.1,6.1,,61,2227,207,-1023,1023.42,60.9,0
"2019-10-30 04:48:15+00",4.3,5.3,,61,804,173,-353,1023.39,60.9,0
"2019-10-30 04:53:15+00",4.0,6.0,,61,795,161,-338,1023.47,60.9,0
"2019-10-30 04:58:15+00",5.5,6.5,,61.1,3037,202,-1384,1023.39,61,0
"2019-10-30 05:03:15+00",5.4,6.4,,61.1,2083,215,-949,1023.31,61,0
"2019-10-30 05:08:15+00",5.6,6.6,,61.2,3119,209,-1419,1023.4,61,0
"2019-10-30 05:13:15+00",4.8,5.8,,61.2,2249,172,-1007,1023.34,61.1,0
"2019-10-30 05:18:15+00",6.1,7.1,,61.2,4484,188,-2057,1023.49,61.1,0
"2019-10-30 05:23:15+00",5.6,6.6,,61.2,3165,183,-1437,1023.38,61.1,0
"2019-10-30 05:28:15+00",6.9,7.9,,61.2,4699,232,-2173,1023.31,61.1,0
"2019-10-30 05:33:15+00",5.9,6.9,,61.2,2858,173,-1280,1023.23,61.1,0
"2019-10-30 05:38:15+00",6.3,7.3,,61.3,4271,202,-1957,1023.19,61.1,0
"2019-10-30 05:43:15+00",6.0,7.0,,61.3,3008,212,-1369,1023.24,61.1,0
"2019-10-30 05:48:15+00",7.4,8.4,,61.3,4552,462,-2271,1023.24,61.2,0
"2019-10-30 05:53:15+00",6.7,7.7,,61.4,3467,221,-1597,1023.29,61.2,0
"2019-10-30 05:58:15+00",6.9,8.9,,61.4,4291,196,-1949,1023.22,61.3,0
"2019-10-30 06:03:15+00",6.7,7.7,,61.4,16503,0,68,1023.16,61.3,-0.1
"2019-10-30 06:08:15+00",7.2,8.2,,61.4,4538,256,-2077,1023.23,61.3,0
"2019-10-30 06:33:15+00",7.0,8.0,,61.4,16493,0,82,1023.15,61.3,-0.1
"2019-10-30 06:38:15+00",8.9,9.9,,61.4,4138,316,-1907,1023.18,61.2,0
"2019-10-30 06:53:15+00",8.3,10.3,,61.3,3825,647,-1404,1023.08,61.2,0
"2019-10-30 06:58:15+00",6.4,8.4,,61.4,2624,567,-890,1022.97,61.2,0
"2019-10-30 07:03:15+00",7.4,9.4,,61.3,3873,189,-1720,1022.99,61.2,0
"2019-10-30 07:08:15+00",6.4,7.4,,61.4,3932,214,-1785,1023.04,61.2,0
"2019-10-30 07:13:15+00",7.1,8.1,,61.4,4173,173,-1882,1022.98,61.3,0
"2019-10-30 07:18:15+00",7.5,8.5,,61.4,4062,184,-1822,1022.86,61.3,0
"2019-10-30 07:33:15+00",8.7,9.7,,61.3,16484,0,91,1022.77,61.2,-0.1
"2019-10-30 07:38:15+00",8.3,10.3,,61.3,3643,282,-1625,1022.75,61.2,0
"2019-10-30 07:43:15+00",7.1,9.1,,61.4,463,233,-145,1022.76,61.2,0
"2019-10-30 07:48:15+00",7.3,8.3,,61.3,1026,245,-403,1022.74,61.2,0
"2019-10-30 07:53:15+00",7.4,8.4,,61.3,1439,411,-474,1022.63,61.2,0
"2019-10-30 07:58:15+00",8.9,10.9,,61.3,1836,395,-684,1022.57,61.2,0
"2019-10-30 08:03:15+00",10.2,12.2,,61.3,2388,315,-1006,1022.6,61.2,0
"2019-10-30 08:08:15+00",9.8,11.8,,61.3,1965,301,-793,1022.66,61.2,0
"2019-10-30 08:13:15+00",8.2,10.2,,61.3,773,248,-240,1022.63,61.2,0
"2019-10-30 08:18:15+00",10.5,13.5,,61.3,403,317,-52,1022.56,61.2,0
"2019-10-30 08:23:15+00",10.3,11.3,,61.3,434,287,-48,1022.49,61.2,0
"2019-10-30 08:28:15+00",9.3,11.3,,61.3,890,267,-300,1022.46,61.2,0
"2019-10-30 08:33:15+00",8.9,10.9,,61.3,1503,254,-572,1022.5,61.2,0
"2019-10-30 08:38:15+00",11.4,12.4,,61.2,1328,322,-465,1022.47,61.1,0
"2019-10-30 08:43:15+00",10.5,12.5,,61.1,1408,349,-542,1022.58,61.1,0
"2019-10-30 08:48:15+00",11.1,12.1,,61.1,354,378,-42,1022.67,61,0
"2019-10-30 08:53:15+00",10.3,11.3,,61.1,532,311,-112,1022.73,61,0
"2019-10-30 08:58:15+00",12.1,13.1,,61.1,1513,367,-589,1022.79,61,0
"2019-10-30 09:03:15+00",11.7,13.7,,61.1,357,349,-8,1022.79,61,0
"2019-10-30 09:08:15+00",8.8,10.8,,61.1,686,267,-192,1022.81,61,0
"2019-10-30 09:13:15+00",9.7,11.7,,61.1,1317,290,-481,1022.82,61,0
"2019-10-30 09:18:15+00",10.7,11.7,,61.1,295,328,9,1022.8,61,0
"2019-10-30 09:23:15+00",10.1,11.1,,61.1,289,309,5,1022.84,61,0
"2019-10-30 09:28:15+00",10.7,12.7,,61.1,314,320,18,1022.84,61,0
"2019-10-30 09:33:15+00",8.5,9.5,,61.1,238,261,13,1022.78,61,0
"2019-10-30 09:38:15+00",10.0,12.0,,61,321,304,-18,1022.84,60.9,0
"2019-10-30 09:43:15+00",7.2,9.2,,61.1,187,241,7,1022.89,60.9,0
"2019-10-30 09:48:15+00",8.7,10.7,,61.1,268,305,-26,1022.87,61,0
"2019-10-30 09:53:15+00",8.4,10.4,,61.2,228,285,-5,1022.82,61,0
"2019-10-30 09:58:15+00",9.0,10.0,,61.2,361,309,-75,1022.82,61,0
"2019-10-30 10:03:15+00",8.9,10.9,,61.2,831,288,-286,1022.84,61,0
"2019-10-30 10:08:15+00",9.7,10.7,,61.2,1276,329,-506,1022.81,61,0
"2019-10-30 10:13:15+00",8.9,10.9,,61.2,1381,317,-554,1022.89,61,0
"2019-10-30 10:18:15+00",10.2,11.2,,61.2,2688,340,-1155,1022.92,61.1,0
"2019-10-30 10:23:15+00",9.6,11.6,,61.2,2592,304,-1122,1023,61.1,0
"2019-10-30 10:28:15+00",8.9,11.9,,61.2,837,289,-284,1022.93,61.1,0
"2019-10-30 10:33:15+00",10.4,12.4,,61.3,2872,342,-1241,1022.88,61.1,0
"2019-10-30 10:38:15+00",10.2,12.2,,61.2,2813,335,-1208,1022.91,61.1,0
"2019-10-30 10:43:15+00",10.9,13.9,,61.2,275,379,11,1022.99,61.1,0
"2019-10-30 10:48:15+00",10.1,12.1,,61.2,815,343,-271,1023.01,61.1,0
"2019-10-30 10:53:15+00",12.2,14.2,,61.2,317,426,-6,1023.14,61.1,0
"2019-10-30 10:58:15+00",11.4,13.4,,61.2,355,369,-30,1023.2,61,0
"2019-10-30 11:03:15+00",13.7,14.7,,61.1,443,402,-22,1023.16,61,0
"2019-10-30 11:08:15+00",10.0,12.0,,61.1,990,316,-362,1023.21,61,0
"2019-10-30 11:13:15+00",10.2,11.2,,61.1,746,313,-235,1023.25,61,0
"2019-10-30 11:18:15+00",10.7,11.7,,61.1,1626,350,-640,1023.31,61,0
"2019-10-30 11:23:15+00",10.6,12.6,,61.1,1244,328,-442,1023.26,61,0
"2019-10-30 11:28:15+00",9.9,10.9,,61.2,2424,294,-996,1023.32,61,0
"2019-10-30 11:33:15+00",11.5,13.5,,61.2,1597,366,-610,1023.26,61.1,0
"2019-10-30 11:38:15+00",12.6,13.6,,61.2,304,454,4,1023.37,61.1,0
"2019-10-30 11:43:15+00",7.9,9.9,,61.2,137,304,19,1023.46,61.1,0
"2019-10-30 11:48:15+00",11.6,13.6,,61.3,346,348,29,1023.49,61.2,0
"2019-10-30 11:53:15+00",11.2,12.2,,61.3,339,326,16,1023.57,61.2,0
"2019-10-30 11:58:15+00",11.7,13.7,,61.2,343,348,3,1023.68,61.1,0
"2019-10-30 12:03:15+00",11.3,12.3,,61.2,326,338,2,1023.59,61.1,0
"2019-10-30 12:08:15+00",10.4,12.4,,61.2,334,294,18,1023.6,61.2,0
"2019-10-30 12:13:15+00",11.3,13.3,,61.2,349,335,3,1023.58,61.2,0
"2019-10-30 12:18:15+00",10.7,12.7,,61.2,605,308,-140,1023.72,61.2,0
"2019-10-30 12:23:15+00",10.9,12.9,,61.2,420,312,-49,1023.78,61.2,0.5
"2019-10-30 12:28:15+00",11.0,13.0,,61.2,763,356,-236,1023.85,61.2,0.3
"2019-10-30 12:33:15+00",12.0,13.0,,61.2,365,363,-23,1023.75,61.2,1.6
"2019-10-30 12:38:15+00",11.2,12.2,,61.3,336,327,-4,1023.74,61.3,8.6
"2019-10-30 12:43:15+00",10.8,11.8,,61.3,314,320,0,1023.86,61.4,13
"2019-10-30 12:48:15+00",8.4,10.4,,61.4,226,275,20,1023.91,61.4,19.9
"2019-10-30 12:53:15+00",11.2,12.2,,61.4,321,336,1,1023.83,61.5,18.9
"2019-10-30 12:58:15+00",10.5,12.5,,61.4,316,318,26,1023.78,61.5,23.1
"2019-10-30 13:03:15+00",12.2,14.2,,61.4,348,384,1,1023.71,61.5,22.2
"2019-10-30 13:08:15+00",10.0,12.0,,61.5,297,295,30,1023.61,61.6,22
"2019-10-30 13:13:15+00",12.2,14.2,,61.5,355,373,-14,1023.51,61.6,19.7
"2019-10-30 13:18:15+00",11.8,13.8,,61.6,378,336,5,1023.46,61.7,23.1
"2019-10-30 13:23:15+00",11.3,12.3,,61.6,340,338,21,1023.46,61.7,31.8
"2019-10-30 13:28:15+00",11.7,12.7,,61.7,382,327,28,1023.27,61.8,25.9
"2019-10-30 13:33:15+00",11.3,12.3,,61.6,428,266,38,1023.24,61.8,35.9
"2019-10-30 13:38:15+00",14.0,16.0,,61.6,454,394,13,1023.29,61.9,51.7
"2019-10-30 13:43:15+00",13.5,15.5,,61.6,439,378,11,1023.25,61.8,45.3
"2019-10-30 13:48:15+00",12.8,14.8,,61.6,407,365,9,1023.31,61.9,42.9
"2019-10-30 13:53:15+00",11.3,12.3,,61.7,346,352,-8,1023.35,62,43.6
"2019-10-30 13:58:15+00",11.6,13.6,,61.7,637,366,-133,1023.36,62,49.9
"2019-10-30 14:03:15+00",10.3,12.3,,61.8,476,296,-66,1023.26,62,37.2
"2019-10-30 14:08:15+00",13.0,16.0,,61.9,821,358,-173,1023.24,62.2,77.7
"2019-10-30 14:13:15+00",13.5,14.5,,62,448,374,19,1023.24,62.3,98
"2019-10-30 14:18:15+00",14.8,15.8,,62,496,405,17,1023.28,62.4,122.8
"2019-10-30 14:23:15+00",14.0,15.0,,62.1,501,368,30,1023.19,62.6,152.2
"2019-10-30 14:28:15+00",15.0,16.0,,62,522,403,17,1023.17,62.4,121.3
"2019-10-30 14:33:15+00",14.6,15.6,,62.1,483,403,11,1023.22,62.4,97.4
"2019-10-30 14:38:15+00",13.5,15.5,,62.1,434,377,19,1023.29,62.4,70.4
"2019-10-30 14:43:15+00",11.9,13.9,,62.1,373,340,28,1023.35,62.3,68.3
"2019-10-30 14:48:15+00",13.5,14.5,,62.1,403,398,13,1023.36,62.4,81.5
"2019-10-30 14:53:15+00",11.7,12.7,,62,375,327,10,1023.47,62.5,78.6
"2019-10-30 14:58:15+00",12.4,14.4,,62,2283,419,-942,1023.57,62.4,73.3
"2019-10-30 15:03:15+00",13.6,14.6,,61.9,1903,1883,-1847,1023.58,62.4,98.1
"2019-10-30 15:08:15+00",12.8,14.8,,61.9,2919,581,-1347,1023.48,62.4,123
"2019-10-30 15:13:15+00",12.4,14.4,,62,268,476,-5,1023.52,62.6,99.3
"2019-10-30 15:18:15+00",12.3,13.3,,62.1,1562,906,-982,1023.48,62.6,84.4
"2019-10-30 15:23:15+00",12.8,14.8,,62.1,4517,421,-1989,1023.29,62.6,79
"2019-10-30 15:28:15+00",11.1,12.1,,62.2,3817,343,-1665,1023.26,62.6,59.7
"2019-10-30 15:33:15+00",10.8,12.8,,62.1,317,362,6,1023.13,62.4,44.8
"2019-10-30 15:38:15+00",11.7,13.7,,62.1,197,944,-392,1023.04,62.4,39.5
"2019-10-30 15:43:15+00",12.2,13.2,,62,405,405,-32,1023,62.3,32.9
"2019-10-30 15:48:15+00",11.7,12.7,,61.9,368,360,-18,1022.9,62.1,32.1
"2019-10-30 15:53:15+00",9.0,11.0,,61.8,242,311,-17,1022.85,62.1,25.3
"2019-10-30 15:58:15+00",12.0,13.0,,61.8,1102,423,-397,1022.77,62,33
"2019-10-30 16:03:15+00",10.5,13.5,,61.8,611,334,-175,1022.8,62.1,33.8
"2019-10-30 16:08:15+00",12.1,13.1,,61.8,748,376,-210,1022.78,62.1,46
"2019-10-30 16:13:15+00",12.3,14.3,,61.8,1061,407,-358,1022.66,62.2,57.4
"2019-10-30 16:18:15+00",13.3,14.3,,61.8,539,409,-111,1022.6,62.1,85
"2019-10-30 16:23:15+00",12.2,13.2,,61.9,1157,381,-381,1022.58,62.3,115.5
"2019-10-30 16:28:15+00",12.6,13.6,,61.9,1982,405,-775,1022.59,62.5,94.4
"2019-10-30 16:33:15+00",12.2,14.2,,62,2755,363,-1129,1022.42,62.7,156.7
"2019-10-30 16:38:15+00",12.1,15.1,,62.1,380,355,8,1022.37,62.9,150
"2019-10-30 16:43:15+00",11.0,13.0,,62.2,304,369,-3,1022.34,62.9,125.5
"2019-10-30 16:48:15+00",10.1,12.1,,62.3,315,297,20,1022.36,63.1,111.2
"2019-10-30 16:53:15+00",10.2,11.2,,62.2,310,294,2,1022.32,63,110.3
"2019-10-30 16:58:15+00",11.3,12.3,,62.2,320,344,7,1022.11,62.9,89.7
"2019-10-30 17:03:15+00",14.1,16.1,,62.2,468,389,24,1021.89,63,152.8
"2019-10-30 17:08:15+00",12.0,13.0,,62.3,423,317,21,1021.83,63,108.8
"2019-10-30 17:13:15+00",10.1,12.1,,62.1,330,283,7,1021.86,62.9,88.4
"2019-10-30 17:18:15+00",10.3,11.3,,62.2,363,274,-8,1021.78,63,92.8
"2019-10-30 17:23:15+00",9.5,12.5,,62.6,371,209,19,1021.59,63.3,91.4
"2019-10-30 17:28:15+00",9.6,12.6,,62.7,387,192,20,1021.57,63.4,89.2
"2019-10-30 17:33:15+00",9.3,11.3,,62.6,375,185,28,1021.51,63.4,84.4
"2019-10-30 17:38:15+00",10.5,11.5,,62.6,436,188,32,1021.33,63.6,101
"2019-10-30 17:43:15+00",10.4,12.4,,62.6,450,161,18,1021.31,63.7,75.9
"2019-10-30 17:48:15+00",8.6,10.6,,62.6,368,136,42,1021.25,63.5,67.7
"2019-10-30 17:53:15+00",8.5,9.5,,62.6,359,138,34,1021.29,63.5,59
"2019-10-30 17:58:15+00",7.7,8.7,,62.6,318,142,37,1021.29,63.4,62.4
"2019-10-30 18:03:15+00",8.5,10.5,,62.5,444,298,118,1021.25,63.4,75.8
"2019-10-30 18:08:15+00",8.1,9.1,,62.5,368,128,34,1021.26,63.5,57.3
"2019-10-30 18:13:15+00",8.8,9.8,,62.4,341,200,16,1021.25,63.4,53.7
"2019-10-30 18:18:15+00",8.9,9.9,,62.4,328,231,12,1021.22,63.1,51.9
"2019-10-30 18:23:15+00",9.0,10.0,,62.5,260,353,-52,1021.09,63.1,58.7
"2019-10-30 18:28:15+00",9.6,10.6,,62.5,277,387,-97,1021.12,63.2,57.1
"2019-10-30 18:33:15+00",9.5,10.5,,62.5,217,480,-129,1021.11,63.4,52.7
"2019-10-30 18:38:15+00",9.2,10.2,,62.5,390,134,3,1021.07,63.3,56.1
"2019-10-30 18:43:15+00",9.8,10.8,,62.3,61,776,-301,1021.13,63.4,44.1
"2019-10-30 18:48:15+00",7.6,9.6,,62.7,308,135,23,1021.01,63.4,25.7
"2019-10-30 18:53:15+00",9.5,10.5,,62.4,394,158,9,1020.86,63.3,55.1
"2019-10-30 18:58:15+00",7.2,8.2,,62.5,272,168,-31,1020.81,63.4,52.5
"2019-10-30 19:02:54+00",8.5,9.5,,62.4,338,168,13,1020.75,63.4,51.6
"2019-10-30 19:07:54+00",8.3,9.3,,62.3,357,102,21,1020.77,63.4,42.2
"2019-10-30 19:12:54+00",8.3,10.3,,62.3,353,114,12,1020.77,63.3,32.2
"2019-10-30 19:17:54+00",6.5,7.5,,62.2,280,80,18,1020.77,63.2,31.4
"2019-10-30 19:22:54+00",5.6,6.6,,62.3,230,209,56,1020.75,63.1,33.8
"2019-10-30 19:27:54+00",6.7,7.7,,62.3,258,153,16,1020.84,63.2,22.3
"2019-10-30 19:32:54+00",4.9,5.9,,62.3,165,145,13,1020.88,63,19.6
"2019-10-30 19:37:54+00",4.0,5.0,,62.4,147,247,42,1020.85,63,25.3
"2019-10-30 19:42:54+00",2.4,2.4,,62.4,853,1382,729,1020.8,63,18.3
"2019-10-30 19:47:54+00",3.7,4.7,,62.6,459,722,340,1020.69,63.2,22.1
"2019-10-30 19:52:54+00",5.3,6.3,,62.5,219,375,102,1020.72,63.3,37.8
"2019-10-30 19:57:54+00",3.8,4.8,,62.5,1236,2220,1119,1020.64,63.3,35.9
"2019-10-30 20:02:54+00",4.4,5.4,,62.7,-292,1735,-333,1020.58,63.4,15
"2019-10-30 20:07:54+00",5.2,6.2,,62.6,3,430,-54,1020.58,63.3,10.3
"2019-10-30 20:12:54+00",4.8,5.8,,62.6,106,361,33,1020.63,63.2,10.6
"2019-10-30 20:17:54+00",4.4,5.4,,62.5,164,340,110,1020.64,63.1,13.6
"2019-10-30 20:22:54+00",5.5,6.5,,62.4,100,214,-4,1020.58,63.1,19.1
"2019-10-30 20:27:54+00",3.4,4.4,,62.5,143,242,83,1020.57,63.1,25
"2019-10-30 20:32:54+00",4.7,4.7,,62.5,85,191,-12,1020.6,63.2,35.6
"2019-10-30 20:37:54+00",3.9,3.9,,62.6,69,151,6,1020.6,63.2,19.8
"2019-10-30 20:42:54+00",3.2,4.2,,62.5,85,181,24,1020.58,63.1,21
"2019-10-30 20:47:54+00",4.0,5.0,,62.5,16,267,61,1020.67,63.2,27.6
"2019-10-30 20:52:54+00",3.8,3.8,,62.5,181,541,207,1020.7,63.2,20.7
"2019-10-30 20:57:54+00",1.2,2.2,,62.4,416,882,441,1020.67,63.1,18.1
"2019-10-30 21:02:54+00",0.5,1.5,,62.5,-61,68,-1,1020.61,63,7
"2019-10-30 21:07:54+00",0.0,0.0,,62.4,-72,-8,-10,1020.58,62.9,0
"2019-10-30 21:12:54+00",0.0,0.0,,62.4,-79,-63,-1,1020.66,62.7,0
"2019-10-30 21:17:54+00",0.0,0.0,,62.4,-15,-59,4,1020.6,62.6,0
"2019-10-30 21:22:54+00",0.0,0.0,,62.5,-14,-44,14,1020.49,62.6,0
"2019-10-30 21:27:54+00",0.0,0.0,,62.5,39,-27,12,1020.32,62.6,0
"2019-10-30 21:32:54+00",0.0,0.0,,62.5,-22,-26,5,1020.39,62.5,0
"2019-10-30 21:37:54+00",0.0,0.0,,62.4,-73,-34,8,1020.46,62.6,0
"2019-10-30 21:42:54+00",2.5,2.5,,62.4,-123,-10,20,1020.47,62.6,0
"2019-10-30 21:47:54+00",4.2,5.2,,62.3,-182,-39,10,1020.42,62.5,0
"2019-10-30 21:52:54+00",5.0,6.0,,62.2,-225,-4,18,1020.48,62.5,0
"2019-10-30 21:57:54+00",5.4,6.4,,62.2,-213,132,18,1020.34,62.3,0
"2019-10-30 22:02:54+00",3.4,4.4,,62.2,-138,78,18,1020.46,62.2,0
"2019-10-30 22:07:54+00",4.0,4.0,,62.2,-175,69,10,1020.55,62.2,0
"2019-10-30 22:12:54+00",2.4,3.4,,62.2,-107,52,13,1020.65,62.2,0
"2019-10-30 22:17:54+00",0.0,0.0,,62.2,-14,-11,5,1020.61,62.2,0
"2019-10-30 22:22:54+00",0.0,0.0,,62.1,-3,-80,-1,1020.61,62.1,0
"2019-10-30 22:27:54+00",0.0,0.0,,62.1,-21,-138,-1,1020.71,62.1,0
"2019-10-30 22:32:54+00",0.0,0.0,,62.1,-6,-131,-2,1020.67,62.1,0
"2019-10-30 22:37:54+00",0.0,0.0,,62.1,-9,-66,-1,1020.5,62.1,0
"2019-10-30 22:42:54+00",0.0,0.0,,62.2,-46,-109,4,1020.46,62.1,0
"2019-10-30 22:47:54+00",4.9,5.9,,62.3,3,-216,-9,1020.53,62.2,0
"2019-10-30 22:52:54+00",4.2,5.2,,62.3,-7,-183,-3,1020.54,62.3,0
"2019-10-30 22:57:54+00",4.1,5.1,,62.4,-80,-167,0,1020.56,62.3,0
"2019-10-30 23:02:54+00",4.6,5.6,,62.5,-98,-183,3,1020.53,62.4,0
"2019-10-30 23:07:54+00",4.1,5.1,,62.5,-102,-161,-4,1020.5,62.4,0
"2019-10-30 23:12:54+00",5.3,6.3,,62.5,-92,-207,-1,1020.61,62.4,0
"2019-10-30 23:17:54+00",5.6,6.6,,62.6,-54,-238,1,1020.62,62.5,0
"2019-10-30 23:22:54+00",6.0,8.0,,62.6,-18,-252,1,1020.64,62.6,0
"2019-10-30 23:27:54+00",4.9,5.9,,62.6,-2,-216,0,1020.63,62.6,0
"2019-10-30 23:32:54+00",5.4,6.4,,62.7,-35,-230,-7,1020.63,62.6,0
"2019-10-30 23:37:54+00",6.0,7.0,,62.6,-66,-248,-5,1020.65,62.6,0
"2019-10-30 23:42:54+00",7.4,9.4,,62.5,-80,-316,-8,1020.51,62.4,0
"2019-10-30 23:47:54+00",4.8,5.8,,62.5,-41,-205,16,1020.44,62.4,0
"2019-10-30 23:52:54+00",7.1,8.1,,62.4,-100,-279,9,1020.49,62.3,0
"2019-10-30 23:57:54+00",5.7,8.7,,62.4,-3,-97,91,1020.59,62.3,0
